DW9622 Weather Reports


time (UTC)temp
F
wind
direction
speed
knots
gust
knots
rain 1hr
in
rain 24hr
in
rain mn
in
humidity
%
barometer
mb
20260503181515 73 9 0.0 1.7 0.00 0.00 0.00 48 1014.6
20260503181006 73 130 0.9 3.5 0.00 0.00 0.00 46 1014.7
20260503180507 72 281 1.7 3.5 0.00 0.00 0.00 47 1014.8
20260503180022 72 286 0.9 6.1 0.00 0.00 0.00 46 1014.8
20260503175503 72 288 2.6 6.1 0.00 0.00 0.00 47 1014.8
20260503175003 73 315 1.7 4.3 0.00 0.00 0.00 48 1014.9
20260503174519 72 29 1.7 4.3 0.00 0.00 0.00 46 1014.9
20260503174008 72 346 0.9 4.3 0.00 0.00 0.00 51 1015.1
20260503173504 71 16 2.6 4.3 0.00 0.00 0.00 48 1015.1
20260503173007 71 325 1.7 5.2 0.00 0.00 0.00 53 1015.2
20260503172504 70 312 2.6 5.2 0.00 0.00 0.00 52 1015.2
20260503172006 70 309 0.9 3.5 0.00 0.00 0.00 53 1015.2
20260503171513 70 21 0.9 4.3 0.00 0.00 0.00 52 1015.3
20260503171003 70 302 1.7 5.2 0.00 0.00 0.00 52 1015.2
20260503170509 70 344 2.6 5.2 0.00 0.00 0.00 52 1015.3
20260503151004 57 201 0.0 1.7 0.00 0.00 0.00 89 1015.8
20260503150504 56 249 0.0 1.7 0.00 0.00 0.00 90 1015.8
20260503131003 45 27 0.0 1.7 0.00 0.01 0.00 95 1015.6
20260503130508 45 27 0.0 1.7 0.00 0.01 0.00 94 1015.6
20260503110510 46 311 0.9 1.7 0.00 0.01 0.00 93 1015.6
20260503090504 48 126 0.0 1.7 0.00 0.01 0.00 92 1015.4
20260503081511 49 227 0.0 1.7 0.00 0.01 0.00 91 1015.3
20260503081006 49 227 0.0 1.7 0.00 0.01 0.00 90 1015.3
20260503080506 49 227 0.0 2.6 0.00 0.01 0.00 90 1015.4
20260503072512 51 167 0.0 0.0 0.00 0.01 0.00 88 1015.3
20260503072006 51 167 0.0 1.7 0.00 0.01 0.00 88 1015.2
20260503071527 51 167 0.0 1.7 0.00 0.01 0.00 87 1015.2
20260503071003 52 167 0.0 2.6 0.00 0.01 0.00 87 1015.2
20260503070505 52 167 0.0 2.6 0.00 0.01 0.00 87 1015.2
20260503055007 56 198 0.0 1.7 0.00 0.01 0.01 80 1014.6
20260503054519 57 198 0.0 1.7 0.00 0.01 0.01 80 1014.6
20260503054009 57 200 0.0 2.6 0.00 0.01 0.01 80 1014.6
20260503053506 57 180 1.7 1.7 0.00 0.01 0.01 80 1014.7
20260503053020 57 184 0.9 2.6 0.00 0.01 0.01 81 1014.6
20260503052506 57 194 0.0 2.6 0.00 0.01 0.01 81 1014.7
20260503052008 57 199 0.9 1.7 0.00 0.01 0.01 81 1014.7
20260503051518 57 184 0.9 2.6 0.00 0.01 0.01 81 1014.7
20260503051006 57 209 0.9 2.6 0.00 0.01 0.01 81 1014.7
20260503050507 57 194 1.7 2.6 0.00 0.01 0.01 80 1014.7
20260503050028 57 195 1.7 2.6 0.00 0.01 0.01 80 1014.7
20260503045508 57 184 1.7 2.6 0.00 0.01 0.01 81 1014.7
20260503045010 57 193 0.9 1.7 0.00 0.01 0.01 81 1014.7
20260503044516 58 199 0.9 1.7 0.00 0.01 0.01 79 1014.7
20260503044007 58 183 0.9 0.9 0.00 0.01 0.01 78 1014.6
20260503043509 59 175 0.9 1.7 0.00 0.01 0.01 77 1014.7
20260503043019 60 154 0.0 1.7 0.00 0.01 0.01 76 1014.6
20260503042506 60 154 0.9 1.7 0.00 0.01 0.01 74 1014.6
20260503042010 61 127 0.0 1.7 0.00 0.01 0.01 73 1014.5
20260503041522 61 166 0.0 1.7 0.00 0.01 0.01 72 1014.6
20260503041008 61 182 0.9 2.6 0.00 0.01 0.01 71 1014.5
20260503040508 62 160 0.9 2.6 0.00 0.01 0.01 71 1014.4
20260503040024 62 160 1.7 2.6 0.00 0.01 0.01 70 1014.4
20260503035508 63 173 1.7 2.6 0.00 0.01 0.01 70 1014.3
20260503035007 63 187 0.0 1.7 0.00 0.01 0.01 69 1014.3
20260503034533 63 223 0.9 2.6 0.00 0.01 0.01 69 1014.3
20260503034008 64 180 0.9 3.5 0.00 0.01 0.01 68 1014.2
20260503033507 64 183 1.7 3.5 0.00 0.01 0.01 68 1014.1
20260503033027 65 184 0.9 1.7 0.00 0.01 0.01 68 1014.0
20260503032510 66 195 0.9 1.7 0.00 0.01 0.01 68 1014.0
20260503032007 66 172 0.0 1.7 0.00 0.01 0.01 64 1014.0
20260503031518 67 205 0.9 3.5 0.00 0.01 0.01 64 1014.0
20260503031011 67 201 1.7 3.5 0.00 0.01 0.01 63 1014.2
20260503030507 68 179 0.9 3.5 0.00 0.01 0.01 62 1014.1
20260503030028 69 186 1.7 3.5 0.00 0.01 0.01 61 1014.0
20260503025508 69 187 0.9 2.6 0.00 0.01 0.01 59 1013.9
20260503025012 70 188 1.7 2.6 0.00 0.01 0.01 60 1013.9
20260503024526 70 195 0.9 2.6 0.00 0.01 0.01 58 1013.9
20260503024007 71 192 1.7 2.6 0.00 0.01 0.01 58 1013.9
20260503023507 71 187 0.9 2.6 0.00 0.01 0.01 57 1013.9
20260503023014 72 195 0.9 2.6 0.00 0.01 0.01 56 1013.9
20260503022509 72 161 0.9 4.3 0.00 0.01 0.01 57 1014.0
20260503022007 72 223 0.9 4.3 0.00 0.01 0.01 55 1014.0
20260503021522 72 175 1.7 5.2 0.00 0.01 0.01 55 1013.9
20260503021004 73 213 1.7 5.2 0.00 0.01 0.01 55 1014.0
20260503020507 73 173 2.6 5.2 0.00 0.01 0.01 55 1014.1
20260503020022 74 196 2.6 6.1 0.00 0.01 0.01 53 1014.1
20260503015507 75 181 3.5 6.1 0.00 0.01 0.01 50 1014.1
20260503015003 75 168 0.9 4.3 0.00 0.01 0.01 45 1014.1
20260503014508 75 228 1.7 4.3 0.00 0.01 0.01 44 1014.2
20260503014007 75 238 2.6 4.3 0.00 0.01 0.01 43 1014.1
20260503013504 75 220 1.7 3.5 0.00 0.01 0.01 46 1014.1
20260503013022 76 217 1.7 3.5 0.00 0.01 0.01 44 1014.2
20260503012508 76 236 1.7 4.3 0.00 0.01 0.01 44 1014.3
20260503012009 76 207 2.6 4.3 0.00 0.01 0.01 44 1014.2
20260503011512 76 221 1.7 3.5 0.00 0.01 0.01 45 1014.3
20260503011008 76 240 0.9 3.5 0.00 0.01 0.01 45 1014.3
20260503010510 77 215 0.9 4.3 0.00 0.01 0.01 45 1014.3
20260503010008 76 248 1.7 4.3 0.00 0.01 0.01 46 1014.3
20260503005507 76 222 3.5 6.1 0.00 0.01 0.01 45 1014.3
20260503005007 76 330 1.7 6.1 0.00 0.01 0.01 43 1014.4
20260503004525 76 248 1.7 7.0 0.00 0.01 0.01 43 1014.4
20260503004007 76 278 2.6 7.0 0.00 0.01 0.01 42 1014.4
20260503003504 77 241 1.7 6.1 0.00 0.01 0.01 43 1014.4
20260503003011 77 280 2.6 7.8 0.00 0.01 0.01 41 1014.5
20260503002504 77 280 2.6 7.8 0.00 0.01 0.01 42 1014.5
20260503002007 77 298 3.5 7.8 0.00 0.01 0.01 41 1014.5
20260503001516 77 303 2.6 7.0 0.00 0.01 0.01 45 1014.5
20260503001008 77 273 2.6 7.0 0.00 0.01 0.01 43 1014.6
20260503000507 76 280 1.7 5.2 0.00 0.01 0.01 43 1014.6
20260503000022 76 313 2.6 7.8 0.00 0.01 0.01 42 1014.6
20260502235508 76 264 3.5 7.8 0.00 0.01 0.01 43 1014.6
20260502235009 76 269 3.5 7.8 0.00 0.01 0.01 43 1014.7
20260502234518 76 214 2.6 7.8 0.00 0.01 0.01 40 1014.7
20260502234007 76 293 3.5 8.7 0.00 0.01 0.01 42 1014.7
20260502233507 76 280 5.2 8.7 0.00 0.01 0.01 40 1014.9
20260502233019 76 250 4.3 8.7 0.00 0.01 0.01 44 1014.9
20260502232505 76 238 5.2 8.7 0.00 0.01 0.01 43 1015.0
20260502232007 76 285 2.6 6.1 0.00 0.01 0.01 45 1015.0
20260502231517 75 296 2.6 6.1 0.00 0.01 0.01 47 1015.0
20260502231007 75 211 3.5 7.8 0.00 0.01 0.01 48 1015.1
20260502230509 75 287 2.6 7.8 0.00 0.01 0.01 45 1015.1
20260502230020 75 246 2.6 7.0 0.00 0.01 0.01 45 1015.2
20260502225507 75 284 2.6 7.0 0.00 0.01 0.01 45 1015.3
20260502225007 75 289 5.2 8.7 0.00 0.01 0.01 47 1015.3
20260502224525 74 269 3.5 8.7 0.00 0.01 0.01 49 1015.4
20260502224008 74 280 5.2 9.6 0.00 0.01 0.01 49 1015.6
20260502223506 74 238 3.5 9.6 0.00 0.01 0.01 51 1015.6
20260502223027 74 278 3.5 8.7 0.00 0.01 0.01 49 1015.6
20260502222508 74 254 3.5 7.8 0.00 0.01 0.01 51 1015.6
20260502222008 74 237 3.5 8.7 0.00 0.01 0.01 51 1015.8
20260502221513 74 248 4.3 8.7 0.00 0.01 0.01 51 1015.9
20260502221006 74 207 3.5 8.7 0.00 0.01 0.01 55 1015.9
20260502220509 74 277 4.3 8.7 0.00 0.01 0.01 52 1015.9
20260502220031 75 232 4.3 7.8 0.00 0.01 0.01 52 1016.0
20260502215507 75 290 3.5 9.6 0.00 0.01 0.01 53 1016.1
20260502215009 74 319 4.3 9.6 0.00 0.01 0.01 53 1016.2
20260502214513 74 303 4.3 8.7 0.00 0.01 0.01 54 1016.2
20260502214008 74 281 3.5 8.7 0.00 0.01 0.01 56 1016.2
20260502213513 73 300 4.3 8.7 0.00 0.01 0.01 53 1016.3
20260502213025 73 278 4.3 9.6 0.00 0.01 0.01 54 1016.4
20260502212508 73 231 6.1 9.6 0.00 0.01 0.01 55 1016.5
20260502212008 73 308 4.3 7.8 0.00 0.01 0.01 55 1016.4
20260502211535 73 302 2.6 7.8 0.00 0.01 0.01 60 1016.6
20260502211007 72 310 3.5 9.6 0.00 0.01 0.01 56 1016.6
20260502210507 72 305 4.3 8.7 0.00 0.01 0.01 56 1016.6
20260502210016 72 306 3.5 8.7 0.00 0.01 0.01 60 1016.7
20260502205510 72 291 5.2 8.7 0.00 0.01 0.01 57 1016.7
20260502205008 71 262 5.2 9.6 0.00 0.01 0.01 57 1016.8
20260502204521 71 226 4.3 9.6 0.00 0.01 0.01 61 1016.8
20260502204009 71 222 5.2 9.6 0.00 0.01 0.01 59 1016.8
20260502203506 71 230 4.3 11.3 0.00 0.01 0.01 59 1016.8
20260502203022 71 250 6.1 11.3 0.00 0.01 0.01 58 1016.9
20260502202507 72 214 4.3 10.4 0.00 0.01 0.01 59 1016.9
20260502202011 72 284 5.2 10.4 0.00 0.01 0.01 58 1017.0
20260502201519 73 279 3.5 9.6 0.00 0.01 0.01 58 1017.0
20260502201007 73 292 4.3 9.6 0.00 0.01 0.01 59 1017.1
20260502200510 73 296 4.3 9.6 0.00 0.01 0.01 58 1017.1
20260502200014 73 277 4.3 9.6 0.00 0.01 0.01 58 1017.1
20260502195507 73 275 5.2 7.8 0.00 0.01 0.01 57 1017.1
20260502195006 73 249 1.7 7.8 0.00 0.01 0.01 52 1017.1
20260502194520 73 313 3.5 7.8 0.00 0.01 0.01 53 1017.2
20260502194006 73 331 0.9 9.6 0.00 0.01 0.01 53 1017.2
20260502193507 72 269 4.3 9.6 0.00 0.01 0.01 54 1017.2
20260502193024 72 271 1.7 8.7 0.00 0.01 0.01 53 1017.2
20260502192510 72 285 1.7 8.7 0.00 0.01 0.01 53 1017.3
20260502192009 72 262 2.6 7.0 0.00 0.01 0.01 56 1017.3
20260502191525 72 276 1.7 7.0 0.00 0.01 0.01 52 1017.3
20260502191010 72 291 3.5 7.0 0.00 0.01 0.01 53 1017.4
20260502190508 72 9 2.6 7.0 0.00 0.01 0.01 54 1017.3
20260502190026 72 352 1.7 8.7 0.00 0.01 0.01 54 1017.4
20260502185509 71 330 3.5 8.7 0.00 0.01 0.01 53 1017.3
20260502185012 71 5 5.2 7.8 0.00 0.01 0.01 55 1017.4
20260502184521 71 352 2.6 7.8 0.00 0.01 0.01 53 1017.5
20260502184007 70 5 3.5 7.0 0.00 0.01 0.01 54 1017.5
20260502183510 70 303 1.7 7.0 0.00 0.01 0.01 58 1017.6
20260502183020 70 338 4.3 7.0 0.00 0.01 0.01 60 1017.7
20260502182509 69 360 2.6 8.7 0.00 0.01 0.01 59 1017.8
20260502182015 69 12 3.5 8.7 0.00 0.01 0.01 57 1017.7